Wind_Speed
24 24 24 24 25 25 25 26 26 26 26 26 26 26 27 27 28 28 28 28 28 28 27 27 27 27 28 28 28 27 26 26 25 25 25 25 25 25 24 25 25 24 25
24 24 25 25 26 26 27 27 27 27 27 28 28 28 28 28 28 28 28 28 28 28 28 27 27 28 28 28 28 28 27 26 26 26 26 26 25 25 25 26 25 25 25
25 25 25 26 26 26 27 28 28 29 28 28 29 29 30 30 29 29 28 28 28 28 29 28 28 28 28 28 27 28 28 28 27 27 27 27 27 26 27 27 26 26 26
25 25 25 26 26 27 27 27 27 28 28 28 29 29 29 30 30 30 30 30 29 29 29 29 30 29 29 29 28 28 28 28 28 28 29 28 28 28 28 28 27 27 27
25 25 25 25 25 25 26 26 26 26 26 27 28 28 29 29 30 30 30 30 30 30 29 28 29 30 30 30 30 30 29 29 29 29 30 30 29 29 29 29 28 28 28
24 24 24 24 24 24 25 25 25 25 26 27 28 29 29 30 29 29 30 30 30 30 30 29 29 30 30 30 31 30 30 30 30 30 30 29 30 30 30 30 30 29 29
24 24 25 24 24 24 24 25 25 26 27 28 29 29 29 30 30 30 30 30 30 29 30 30 29 29 29 30 31 31 31 30 30 30 31 30 31 31 31 31 31 31 30
24 25 25 24 24 24 25 25 25 27 27 28 28 28 28 29 29 30 30 30 29 29 28 29 29 28 29 30 32 32 32 32 31 31 31 31 32 32 32 32 32 32 32
24 23 23 24 24 24 25 25 26 26 26 26 26 26 27 27 28 28 28 28 28 27 27 26 27 28 28 29 30 31 32 32 32 32 32 31 31 33 33 34 33 33 34
23 22 22 22 22 23 24 24 24 25 25 25 25 24 24 24 24 25 25 25 26 26 26 26 26 26 27 28 29 31 31 32 32 33 33 33 32 33 33 34 35 35 35
21 21 21 20 21 22 23 23 23 24 24 24 23 23 22 22 22 23 23 24 25 25 25 25 26 27 27 27 28 29 30 32 32 32 33 33 33 34 34 35 36 37 37
21 20 19 19 20 21 22 22 22 21 21 21 21 21 22 21 21 22 22 23 24 25 25 25 26 27 27 27 27 28 29 30 31 32 32 33 33 33 34 34 36 37 38
20 20 19 19 20 20 21 21 20 19 18 19 19 19 19 20 20 21 21 22 23 24 24 25 25 26 26 27 27 27 28 28 30 31 32 33 33 33 33 34 35 37 37
20 18 18 19 20 20 20 18 17 17 17 17 18 18 18 18 19 19 20 21 23 23 24 25 26 25 25 26 25 26 27 27 28 29 31 32 33 34 34 34 35 35 36
17 17 18 19 19 18 17 16 15 15 16 15 15 16 16 17 18 18 18 19 20 22 22 23 24 24 24 25 24 25 26 27 28 29 31 32 33 34 35 35 35 35 36
16 16 17 18 18 17 16 16 15 15 13 13 13 13 15 16 16 17 17 17 17 19 20 21 23 23 23 23 24 25 25 26 27 28 30 31 32 33 34 35 35 35 37
15 16 17 17 18 17 16 15 15 14 14 13 12 12 12 13 14 15 15 16 16 17 18 20 22 22 22 22 23 24 26 26 26 27 29 31 32 33 33 35 36 36 36
15 16 16 17 17 17 16 16 16 15 14 13 12 11 11 11 12 13 14 15 16 17 18 19 20 21 22 22 23 25 26 26 26 28 28 30 31 33 33 34 35 36 36
16 16 17 17 16 16 16 15 15 14 13 12 12 11 11 11 11 12 13 14 15 16 17 18 19 20 21 22 23 24 24 25 25 27 29 29 30 31 33 33 34 35 35
17 17 17 16 15 15 15 15 14 13 12 11 11 11 11 11 12 12 11 12 13 14 15 16 17 18 19 20 22 23 23 23 24 25 27 27 27 29 30 31 32 33 34
17 16 15 14 15 15 15 15 14 13 11 11 11 11 11 10 11 10 10 10 11 12 13 14 14 16 17 18 19 21 21 22 23 24 24 25 26 27 27 29 30 32 32
16 15 15 15 15 15 16 16 14 13 12 11 11 11 11 10 10 10 10 10 10 10 11 11 12 14 15 16 17 19 20 20 20 21 22 23 24 25 26 27 28 30 32
15 15 16 16 16 16 17 17 16 14 12 11 11 11 11 11 11 10 10 9 9 10 11 11 12 13 14 14 15 16 16 17 18 19 20 21 22 23 24 26 27 28 30
14 15 16 17 17 17 17 17 16 14 12 11 10 10 10 9 9 9 9 9 9 9 10 11 12 12 13 14 15 15 15 15 17 17 18 19 20 21 23 24 25 26 27
14 15 16 17 18 18 18 18 16 14 12 11 10 10 9 9 8 8 9 9 9 8 8 10 11 11 11 12 13 13 14 15 15 16 17 18 18 18 19 21 22 23 24
14 15 16 17 18 18 18 17 16 14 13 12 10 10 10 9 9 8 8 8 8 7 8 9 10 11 10 9 10 11 12 13 13 14 14 16 16 17 18 19 20 21 22
Wind_Direction
290 288 285 283 282 281 278 275 275 275 274 272 271 271 271 270 268 267 266 263 261 259 258 257 256 255 254 252 250 247 246 244 241 240 238 238 238 238 240 240 240 240 239
293 288 285 284 283 282 281 278 276 275 274 272 272 271 271 271 269 266 264 263 261 259 258 257 257 254 252 251 248 245 244 243 242 241 241 241 240 240 240 240 240 240 240
294 290 286 284 283 282 281 280 278 275 274 273 271 271 271 270 267 266 264 263 262 261 258 257 257 254 250 249 248 245 243 243 243 242 241 241 242 241 241 240 240 240 240
292 290 289 286 285 283 282 282 280 277 275 274 272 271 271 269 267 265 264 264 263 262 261 259 257 253 249 247 246 245 243 244 243 243 242 242 242 241 241 242 241 240 239
295 293 289 287 285 285 283 284 283 279 276 274 273 272 272 270 268 265 264 263 262 261 259 257 255 253 250 248 246 246 244 243 243 243 243 242 242 241 242 242 242 241 241
295 293 290 287 286 286 284 284 282 280 278 276 274 273 272 270 268 265 263 262 260 260 258 256 254 253 250 248 246 247 246 244 243 244 243 242 242 241 241 242 242 242 242
296 294 291 289 288 287 286 284 283 282 280 278 275 272 271 269 267 265 263 261 261 259 258 256 253 252 251 247 246 246 246 246 244 244 244 243 243 242 242 242 243 243 242
299 295 293 291 289 288 287 286 287 286 282 280 278 275 271 269 267 265 263 262 260 259 259 257 253 252 251 248 246 246 247 246 245 244 245 244 243 243 243 242 243 243 243
301 299 298 293 289 289 288 288 289 287 283 280 279 277 272 268 266 265 262 259 259 258 256 255 253 251 250 248 247 248 248 246 246 245 245 245 245 244 244 243 243 244 245
304 301 301 297 293 293 292 291 290 288 283 280 278 276 274 271 267 264 262 259 257 256 255 255 255 252 251 249 250 249 247 246 246 247 246 246 246 245 246 245 244 246 247
309 306 305 304 298 297 297 296 295 290 286 280 275 272 273 271 269 265 260 258 257 255 255 255 254 252 251 249 249 250 249 248 247 247 248 248 247 245 246 247 247 247 247
311 309 306 307 306 304 302 300 297 294 289 281 274 271 272 270 268 266 263 260 257 256 255 255 255 252 251 249 248 249 250 249 250 251 250 249 249 248 247 248 248 248 248
313 312 311 312 310 309 309 305 297 294 291 285 277 274 273 269 266 264 263 261 259 257 257 255 255 254 251 250 250 251 250 250 251 253 252 250 249 249 248 248 249 249 249
315 314 315 314 314 315 314 311 305 298 294 288 281 276 272 270 266 263 263 262 261 259 258 257 254 256 253 252 253 255 255 253 253 253 253 252 252 251 249 250 250 250 251
316 316 317 318 319 319 316 315 313 306 300 293 287 279 273 270 267 266 265 262 260 259 260 258 257 258 257 254 256 258 258 256 255 254 254 253 252 251 251 250 249 251 253
321 319 319 320 322 322 320 319 317 312 310 303 295 287 278 272 270 268 268 265 262 261 261 259 258 257 257 255 257 260 260 260 258 257 255 254 252 252 252 252 252 253 254
324 322 323 323 324 324 322 321 320 316 312 307 300 294 286 280 276 272 271 270 263 260 260 260 256 257 258 258 259 261 262 262 260 260 258 256 255 254 255 254 255 255 255
330 330 328 327 327 328 327 324 320 315 313 309 300 293 290 289 285 281 277 270 264 260 262 260 258 259 259 259 261 264 264 265 263 260 259 258 257 256 256 256 256 256 255
335 333 332 331 329 329 330 327 322 317 313 308 301 295 291 293 292 292 284 275 268 265 263 259 259 261 261 261 262 264 266 266 263 261 260 259 259 258 257 257 257 256 255
339 338 336 337 337 336 336 332 328 322 315 310 305 300 298 296 295 291 287 281 274 269 265 262 261 262 264 264 264 266 268 268 264 262 261 262 261 261 260 259 258 256 255
346 348 350 351 349 345 342 338 333 326 319 314 310 304 303 300 297 290 284 282 283 279 271 265 264 265 267 269 268 268 270 268 264 265 264 262 263 264 263 262 259 256 256
356 356 355 355 353 351 349 346 340 332 322 317 314 312 310 306 302 296 288 285 282 278 272 269 271 269 272 274 274 273 272 271 269 268 266 265 266 266 266 263 260 259 259
357 358 356 355 355 353 350 347 345 338 330 324 319 316 313 311 308 304 297 290 285 282 277 275 278 273 272 274 278 280 280 279 276 271 271 269 268 268 268 266 262 261 261
357 358 358 357 355 353 352 349 345 341 334 329 327 325 324 323 318 311 303 295 291 290 290 285 284 283 279 277 282 285 285 283 281 279 277 276 272 271 271 269 267 264 262
354 356 356 356 354 353 352 351 350 347 344 339 336 333 330 325 322 317 310 304 298 291 294 294 294 293 289 285 285 287 287 287 285 282 281 282 280 278 276 273 270 268 265
354 355 354 354 354 354 354 354 352 350 345 341 337 335 334 330 329 324 316 316 313 304 303 303 303 301 301 302 302 300 296 295 293 289 285 286 286 285 281 277 274 271 269
Height
5834 5832 5830 5828 5827 5826 5825 5824 5823 5822 5821 5821 5820 5820 5820 5819 5819 5819 5819 5820 5821 5821 5822 5823 5825 5826 5827 5828 5829 5830 5832 5833 5835 5837 5839 5841 5844 5846 5848 5850 5852 5855 5857
5827 5825 5823 5822 5820 5819 5818 5817 5816 5815 5814 5814 5813 5813 5812 5812 5812 5812 5812 5812 5813 5814 5815 5816 5817 5819 5820 5821 5822 5824 5826 5828 5830 5831 5834 5836 5838 5840 5842 5845 5847 5849 5852
5822 5819 5817 5815 5813 5812 5811 5810 5809 5808 5807 5806 5806 5805 5805 5805 5805 5805 5805 5805 5806 5807 5807 5809 5810 5811 5813 5814 5816 5818 5820 5822 5824 5826 5828 5830 5832 5835 5837 5839 5841 5844 5846
5815 5813 5810 5808 5806 5805 5803 5802 5801 5800 5799 5799 5798 5797 5797 5797 5797 5797 5797 5798 5798 5799 5800 5801 5802 5804 5805 5807 5809 5811 5813 5815 5817 5819 5822 5824 5826 5829 5831 5833 5836 5838 5841
5808 5806 5803 5801 5799 5797 5796 5794 5793 5792 5791 5790 5790 5790 5789 5789 5789 5789 5789 5790 5790 5791 5792 5793 5794 5796 5798 5800 5802 5804 5806 5808 5810 5813 5815 5818 5820 5822 5825 5827 5830 5832 5835
5802 5799 5797 5794 5792 5790 5789 5787 5786 5784 5783 5783 5782 5781 5781 5781 5780 5781 5781 5781 5782 5783 5783 5785 5786 5788 5790 5792 5794 5797 5799 5801 5803 5805 5808 5811 5813 5816 5818 5821 5823 5826 5828
5795 5792 5789 5787 5785 5783 5781 5780 5778 5777 5776 5774 5773 5773 5773 5772 5772 5772 5772 5773 5774 5774 5775 5776 5778 5780 5782 5784 5786 5789 5791 5794 5796 5798 5801 5803 5806 5809 5811 5814 5816 5819 5821
5788 5785 5782 5780 5778 5776 5774 5772 5770 5769 5767 5766 5765 5764 5764 5765 5764 5763 5764 5764 5765 5766 5767 5768 5770 5772 5774 5776 5779 5781 5784 5786 5789 5791 5793 5796 5798 5801 5804 5807 5809 5812 5814
5781 5778 5775 5772 5770 5769 5767 5765 5763 5761 5759 5758 5757 5756 5756 5756 5755 5755 5756 5757 5758 5759 5760 5761 5763 5764 5766 5769 5771 5774 5776 5779 5781 5783 5785 5788 5790 5793 5796 5799 5801 5804 5806
5774 5771 5769 5766 5764 5762 5760 5757 5755 5753 5752 5751 5749 5748 5748 5747 5747 5748 5748 5749 5750 5751 5753 5754 5756 5757 5759 5761 5763 5766 5768 5770 5773 5775 5777 5779 5782 5784 5787 5790 5793 5796 5798
5769 5766 5763 5760 5758 5756 5753 5751 5749 5747 5745 5743 5742 5742 5741 5740 5740 5741 5741 5742 5743 5744 5746 5747 5748 5750 5752 5753 5756 5758 5760 5762 5764 5766 5768 5771 5773 5776 5778 5781 5783 5786 5789
5764 5761 5758 5756 5753 5750 5747 5744 5742 5740 5738 5736 5735 5735 5735 5734 5734 5733 5734 5735 5736 5737 5738 5740 5741 5742 5744 5746 5748 5750 5752 5754 5756 5758 5760 5762 5764 5767 5769 5772 5774 5776 5779
5760 5757 5754 5751 5748 5745 5742 5738 5736 5734 5732 5730 5729 5728 5728 5728 5727 5727 5727 5728 5729 5730 5731 5733 5734 5735 5737 5739 5741 5742 5744 5746 5748 5749 5751 5754 5756 5758 5760 5762 5765 5767 5769
5756 5753 5750 5747 5744 5740 5737 5733 5731 5729 5726 5725 5723 5722 5722 5721 5721 5721 5721 5722 5723 5723 5724 5725 5727 5728 5730 5732 5734 5735 5737 5739 5740 5741 5743 5745 5747 5749 5751 5753 5755 5757 5759
5752 5749 5746 5743 5740 5736 5733 5730 5727 5724 5722 5720 5718 5717 5716 5716 5715 5715 5715 5715 5716 5717 5718 5719 5720 5722 5723 5725 5727 5729 5730 5731 5732 5733 5735 5736 5738 5740 5742 5744 5746 5748 5749
5749 5746 5743 5740 5736 5733 5729 5726 5723 5720 5718 5716 5714 5712 5711 5710 5710 5710 5710 5710 5710 5711 5712 5713 5714 5715 5717 5719 5720 5722 5723 5724 5725 5725 5726 5728 5729 5731 5733 5734 5736 5738 5739
5746 5743 5740 5736 5733 5729 5726 5723 5719 5716 5714 5712 5710 5708 5707 5706 5705 5705 5704 5704 5705 5705 5707 5707 5708 5709 5711 5712 5714 5715 5715 5716 5717 5717 5718 5719 5720 5722 5723 5725 5726 5727 5728
5744 5740 5737 5733 5730 5726 5723 5719 5716 5713 5711 5708 5706 5705 5703 5702 5701 5700 5699 5699 5699 5700 5701 5701 5702 5703 5705 5706 5707 5707 5708 5708 5708 5709 5710 5711 5712 5713 5714 5715 5716 5717 5717
5741 5738 5734 5730 5727 5723 5720 5716 5713 5709 5707 5705 5703 5701 5700 5698 5697 5696 5695 5695 5694 5695 5695 5696 5696 5697 5698 5699 5700 5700 5700 5700 5700 5701 5701 5702 5703 5704 5704 5705 5706 5706 5707
5739 5736 5732 5728 5724 5720 5717 5713 5710 5707 5704 5701 5699 5697 5696 5694 5693 5692 5691 5690 5690 5690 5690 5691 5691 5692 5692 5693 5693 5693 5693 5693 5693 5693 5693 5693 5694 5694 5695 5696 5697 5697 5698
5738 5734 5730 5726 5723 5719 5715 5711 5708 5704 5701 5699 5696 5694 5692 5690 5689 5688 5687 5686 5686 5686 5686 5686 5686 5687 5687 5687 5687 5687 5686 5686 5686 5685 5685 5686 5686 5687 5686 5686 5687 5687 5689
5737 5733 5729 5726 5722 5718 5714 5710 5706 5702 5699 5696 5694 5691 5689 5687 5686 5685 5684 5683 5683 5682 5682 5682 5682 5682 5682 5682 5681 5681 5680 5680 5680 5679 5678 5678 5678 5678 5678 5678 5678 5679 5680
5736 5732 5728 5725 5721 5717 5712 5708 5704 5700 5697 5694 5692 5689 5687 5685 5684 5682 5681 5680 5679 5679 5679 5679 5678 5678 5678 5678 5677 5676 5674 5673 5673 5673 5672 5672 5671 5671 5670 5670 5670 5671 5671
5736 5732 5728 5724 5720 5716 5711 5707 5703 5698 5695 5692 5690 5687 5685 5683 5681 5680 5679 5677 5677 5676 5676 5675 5675 5674 5673 5673 5672 5671 5670 5669 5668 5667 5666 5666 5665 5664 5664 5663 5663 5663 5663
5735 5732 5728 5724 5719 5715 5711 5706 5701 5697 5694 5691 5689 5686 5684 5682 5680 5678 5677 5675 5674 5674 5673 5672 5671 5670 5669 5669 5668 5666 5665 5664 5663 5662 5661 5661 5659 5658 5657 5656 5655 5655 5655
5734 5731 5727 5723 5719 5714 5710 5705 5700 5696 5693 5690 5687 5685 5683 5680 5678 5676 5675 5674 5673 5672 5671 5670 5669 5668 5666 5665 5664 5663 5661 5660 5659 5658 5657 5656 5654 5653 5651 5650 5649 5649 5649